BAW4648 KLAX-KSAN

Flight info

Callsign BAW4648
Flight time N/A
Altitude 20000
Route STRAIGHT OUT DEPARTURE
Aircraft A388/J-S/N

Departure

Time 2026-04-20 01:48
Airport Los Angeles International Airport (KLAX)

Arrival

Time N/A
Airport San Diego International Airport (KSAN)
Time Latitude Longitude Altitude Speed Heading
2026-04-20 01:28 33.94089 -118.40938 132 ft 0 kts 264°
2026-04-20 01:33 33.94089 -118.40933 132 ft 2 kts 264°
2026-04-20 01:34 33.94091 -118.40912 130 ft 2 kts 264°
2026-04-20 01:34 33.94092 -118.40892 130 ft 3 kts 262°
2026-04-20 01:34 33.94090 -118.40863 132 ft 3 kts 222°
2026-04-20 01:34 33.94104 -118.40839 125 ft 3 kts 182°
2026-04-20 01:35 33.94127 -118.40831 132 ft 3 kts 143°
2026-04-20 01:35 33.94135 -118.40833 126 ft 0 kts 130°
2026-04-20 01:38 33.94133 -118.40831 132 ft 1 kts 133°
2026-04-20 01:38 33.94122 -118.40830 126 ft 1 kts 152°
2026-04-20 01:39 33.94113 -118.40835 128 ft 2 kts 172°
2026-04-20 01:39 33.94073 -118.40829 129 ft 10 kts 173°
2026-04-20 01:39 33.93974 -118.40814 130 ft 14 kts 173°
2026-04-20 01:39 33.93883 -118.40767 127 ft 15 kts 147°
2026-04-20 01:40 33.93815 -118.40664 122 ft 16 kts 109°
2026-04-20 01:40 33.93824 -118.40530 123 ft 18 kts 83°
2026-04-20 01:40 33.93842 -118.40358 132 ft 23 kts 83°
2026-04-20 01:40 33.93856 -118.40222 129 ft 19 kts 84°
2026-04-20 01:41 33.93884 -118.40062 124 ft 14 kts 62°
2026-04-20 01:41 33.93943 -118.40058 129 ft 5 kts 346°
2026-04-20 01:41 33.93959 -118.40085 124 ft 3 kts 309°
2026-04-20 01:41 33.93953 -118.40106 124 ft 2 kts 270°
2026-04-20 01:42 33.93946 -118.40148 129 ft 10 kts 262°
2026-04-20 01:42 33.93933 -118.40265 128 ft 18 kts 263°
2026-04-20 01:42 33.93916 -118.40450 132 ft 26 kts 263°
2026-04-20 01:42 33.93899 -118.40618 124 ft 21 kts 263°
2026-04-20 01:43 33.93883 -118.40769 128 ft 13 kts 262°
2026-04-20 01:43 33.93867 -118.40910 124 ft 20 kts 263°
2026-04-20 01:43 33.93849 -118.41091 132 ft 19 kts 266°
2026-04-20 01:43 33.93904 -118.41170 132 ft 11 kts 335°
2026-04-20 01:44 33.93982 -118.41179 129 ft 15 kts 353°
2026-04-20 01:44 33.94109 -118.41198 130 ft 22 kts 353°
2026-04-20 01:44 33.94277 -118.41223 126 ft 27 kts 353°
2026-04-20 01:44 33.94448 -118.41250 129 ft 21 kts 354°
2026-04-20 01:45 33.94618 -118.41274 126 ft 28 kts 353°
2026-04-20 01:45 33.94774 -118.41270 132 ft 18 kts 28°
2026-04-20 01:45 33.94811 -118.41125 132 ft 20 kts 83°
2026-04-20 01:45 33.94832 -118.40926 123 ft 28 kts 83°
2026-04-20 01:46 33.94857 -118.40667 132 ft 35 kts 83°
2026-04-20 01:46 33.94885 -118.40401 132 ft 27 kts 82°
2026-04-20 01:46 33.94911 -118.40149 132 ft 34 kts 82°
2026-04-20 01:46 33.94952 -118.39934 125 ft 15 kts 53°
2026-04-20 01:47 33.95032 -118.39936 125 ft 10 kts 337°
2026-04-20 01:47 33.95041 -118.39985 123 ft 2 kts 271°
2026-04-20 01:47 33.95037 -118.39997 122 ft 5 kts 263°
2026-04-20 01:47 33.95019 -118.40174 123 ft 60 kts 263°
2026-04-20 01:48 33.94930 -118.41032 132 ft 144 kts 263°
2026-04-20 01:48 33.94780 -118.42494 364 ft 197 kts 262°
2026-04-20 01:48 33.94599 -118.44270 1110 ft 233 kts 262°
2026-04-20 01:48 33.94369 -118.46384 1962 ft 274 kts 261°
2026-04-20 01:49 33.94079 -118.48767 3018 ft 300 kts 259°
2026-04-20 01:49 33.93724 -118.51331 4180 ft 322 kts 258°
2026-04-20 01:49 33.93292 -118.54124 4816 ft 361 kts 257°
2026-04-20 01:49 33.92734 -118.57304 4831 ft 408 kts 256°
2026-04-20 01:50 33.92109 -118.60606 5639 ft 400 kts 255°
2026-04-20 01:50 33.91507 -118.63654 6623 ft 342 kts 255°
2026-04-20 01:50 33.90995 -118.66173 7624 ft 302 kts 253°
2026-04-20 01:50 33.90467 -118.68681 7924 ft 318 kts 251°
2026-04-20 01:51 33.89551 -118.71057 8720 ft 311 kts 234°
2026-04-20 01:51 33.88161 -118.73050 9511 ft 315 kts 223°
2026-04-20 01:51 33.86430 -118.74718 10138 ft 324 kts 212°
2026-04-20 01:51 33.84364 -118.75893 10620 ft 333 kts 195°
2026-04-20 01:52 33.82068 -118.76298 11295 ft 338 kts 181°
2026-04-20 01:52 33.79715 -118.76012 11964 ft 342 kts 168°
2026-04-20 01:52 33.77468 -118.75096 12817 ft 343 kts 157°
2026-04-20 01:52 33.75392 -118.73599 12871 ft 362 kts 140°
2026-04-20 01:53 33.73789 -118.71165 12824 ft 381 kts 123°
2026-04-20 01:53 33.72826 -118.68731 12994 ft 397 kts 114°
2026-04-20 01:53 33.72049 -118.65464 13121 ft 415 kts 103°
2026-04-20 01:53 33.71663 -118.61951 12993 ft 431 kts 96°
2026-04-20 01:54 33.71629 -118.59588 13268 ft 425 kts 92°
2026-04-20 01:54 33.71601 -118.56002 13331 ft 433 kts 97°
2026-04-20 01:54 33.71085 -118.52453 13235 ft 430 kts 103°
2026-04-20 01:54 33.70790 -118.48860 13089 ft 433 kts 95°
2026-04-20 01:55 33.70721 -118.45233 13022 ft 431 kts 93°
2026-04-20 01:55 33.70683 -118.41636 12990 ft 431 kts 93°
2026-04-20 01:55 33.70520 -118.38052 12969 ft 429 kts 101°
2026-04-20 01:55 33.69880 -118.34564 12965 ft 427 kts 108°
2026-04-20 01:56 33.68954 -118.31188 12969 ft 425 kts 111°
2026-04-20 01:56 33.67962 -118.27841 12964 ft 425 kts 112°
2026-04-20 01:56 33.66964 -118.24528 12964 ft 426 kts 112°
2026-04-20 01:56 33.65939 -118.21195 12962 ft 426 kts 112°
2026-04-20 01:57 33.64905 -118.17874 12956 ft 425 kts 112°
2026-04-20 01:57 33.63868 -118.14548 12960 ft 425 kts 112°
2026-04-20 01:57 33.62829 -118.11225 12959 ft 426 kts 112°
2026-04-20 01:57 33.61633 -118.07989 12951 ft 423 kts 121°
2026-04-20 01:58 33.59842 -118.05227 12951 ft 419 kts 135°
2026-04-20 01:58 33.57699 -118.02863 12963 ft 420 kts 142°
2026-04-20 01:58 33.55408 -118.00683 12970 ft 419 kts 144°
2026-04-20 01:58 33.53015 -117.98697 12965 ft 418 kts 148°
2026-04-20 01:59 33.50563 -117.96821 12964 ft 418 kts 149°
2026-04-20 01:59 33.48089 -117.94973 12965 ft 418 kts 149°
2026-04-20 01:59 33.45611 -117.93142 12965 ft 418 kts 149°
2026-04-20 01:59 33.43146 -117.91299 12966 ft 418 kts 147°
2026-04-20 02:00 33.40818 -117.89210 12962 ft 419 kts 142°
2026-04-20 02:00 33.38568 -117.87033 12965 ft 421 kts 142°
2026-04-20 02:00 33.36347 -117.84759 12965 ft 420 kts 137°
2026-04-20 02:00 33.34325 -117.82231 12965 ft 420 kts 133°
2026-04-20 02:01 33.32372 -117.79626 12967 ft 421 kts 133°
2026-04-20 02:01 33.30335 -117.77100 12966 ft 422 kts 136°
2026-04-20 02:01 33.28237 -117.74653 12966 ft 421 kts 137°
2026-04-20 02:01 33.26119 -117.72231 12965 ft 420 kts 138°
2026-04-20 02:02 33.23946 -117.69894 12966 ft 420 kts 140°
2026-04-20 02:02 33.21747 -117.67596 12965 ft 421 kts 140°
2026-04-20 02:02 33.19529 -117.65299 12967 ft 421 kts 140°
2026-04-20 02:02 33.17310 -117.63010 12967 ft 421 kts 140°
2026-04-20 02:03 33.15097 -117.60734 12968 ft 420 kts 140°
2026-04-20 02:03 33.12913 -117.58490 12969 ft 420 kts 140°
2026-04-20 02:03 33.10666 -117.56181 12972 ft 421 kts 140°
2026-04-20 02:03 33.08475 -117.53932 12971 ft 421 kts 140°
2026-04-20 02:04 33.06260 -117.51658 12968 ft 412 kts 140°
2026-04-20 02:04 33.04167 -117.49502 12961 ft 384 kts 140°
2026-04-20 02:04 33.02193 -117.47516 12839 ft 360 kts 141°
2026-04-20 02:04 33.00275 -117.45645 12317 ft 351 kts 142°
2026-04-20 02:05 32.98414 -117.43856 12096 ft 335 kts 142°
2026-04-20 02:05 32.96651 -117.42164 11975 ft 316 kts 142°
2026-04-20 02:05 32.94978 -117.40559 11846 ft 300 kts 142°
2026-04-20 02:05 32.93394 -117.39039 11738 ft 285 kts 142°
2026-04-20 02:06 32.91886 -117.37591 11493 ft 275 kts 142°
2026-04-20 02:06 32.90402 -117.36165 11163 ft 270 kts 142°
2026-04-20 02:06 32.88950 -117.34769 10838 ft 266 kts 142°
2026-04-20 02:06 32.87530 -117.33402 10567 ft 260 kts 142°
2026-04-20 02:07 32.86117 -117.32023 10051 ft 265 kts 141°
2026-04-20 02:07 32.84715 -117.30599 9612 ft 266 kts 140°
2026-04-20 02:07 32.83321 -117.29166 9213 ft 263 kts 140°
2026-04-20 02:07 32.82036 -117.27596 8694 ft 267 kts 131°
2026-04-20 02:08 32.80981 -117.25789 8275 ft 267 kts 122°
2026-04-20 02:08 32.80151 -117.23802 7735 ft 272 kts 115°
2026-04-20 02:08 32.79495 -117.21685 7211 ft 275 kts 110°
2026-04-20 02:08 32.79014 -117.19483 6838 ft 273 kts 103°
2026-04-20 02:09 32.78912 -117.17247 6474 ft 272 kts 89°
2026-04-20 02:09 32.79162 -117.15035 6158 ft 268 kts 83°
2026-04-20 02:09 32.79480 -117.12895 5961 ft 258 kts 83°
2026-04-20 02:09 32.79803 -117.10870 5903 ft 242 kts 84°
2026-04-20 02:10 32.79820 -117.08951 5892 ft 225 kts 102°
2026-04-20 02:10 32.79391 -117.07274 5986 ft 204 kts 117°
2026-04-20 02:10 32.78828 -117.05734 5898 ft 211 kts 114°
2026-04-20 02:10 32.78316 -117.04112 5902 ft 208 kts 115°
2026-04-20 02:11 32.77810 -117.02505 6005 ft 209 kts 113°
2026-04-20 02:11 32.77293 -117.00867 6102 ft 211 kts 115°
2026-04-20 02:11 32.76761 -116.99228 6038 ft 217 kts 115°
2026-04-20 02:11 32.76208 -116.97533 5883 ft 223 kts 114°
2026-04-20 02:12 32.75659 -116.95836 5856 ft 218 kts 114°
2026-04-20 02:12 32.75259 -116.94096 5803 ft 220 kts 99°
2026-04-20 02:12 32.75229 -116.92272 5813 ft 222 kts 93°
2026-04-20 02:12 32.75221 -116.90425 5813 ft 225 kts 93°
2026-04-20 02:13 32.75225 -116.88566 5790 ft 227 kts 93°
2026-04-20 02:13 32.75234 -116.86690 5867 ft 227 kts 93°
2026-04-20 02:13 32.75051 -116.84813 5744 ft 230 kts 109°
2026-04-20 02:13 32.74356 -116.83144 5573 ft 224 kts 127°
2026-04-20 02:14 32.73250 -116.81871 5320 ft 221 kts 149°
2026-04-20 02:14 32.71843 -116.81192 5073 ft 218 kts 170°
2026-04-20 02:14 32.70366 -116.81241 5009 ft 209 kts 194°
2026-04-20 02:14 32.69075 -116.81987 5076 ft 210 kts 217°
2026-04-20 02:15 32.68093 -116.83298 5129 ft 217 kts 236°
2026-04-20 02:15 32.67471 -116.84950 5074 ft 221 kts 248°
2026-04-20 02:15 32.66962 -116.86659 5026 ft 219 kts 249°
2026-04-20 02:15 32.66473 -116.88387 4994 ft 223 kts 249°
2026-04-20 02:16 32.66151 -116.90175 5006 ft 223 kts 263°
2026-04-20 02:16 32.66234 -116.92049 4750 ft 228 kts 281°
2026-04-20 02:16 32.66651 -116.93846 4679 ft 231 kts 283°
2026-04-20 02:16 32.67083 -116.95667 4458 ft 226 kts 284°
2026-04-20 02:17 32.67582 -116.97439 4181 ft 229 kts 288°
2026-04-20 02:17 32.68094 -116.99205 3900 ft 223 kts 288°
2026-04-20 02:17 32.68648 -117.00931 3747 ft 225 kts 290°
2026-04-20 02:17 32.69215 -117.02634 3777 ft 223 kts 289°
2026-04-20 02:18 32.69730 -117.04407 3533 ft 221 kts 286°
2026-04-20 02:18 32.70156 -117.05914 3638 ft 179 kts 285°
2026-04-20 02:18 32.70537 -117.07362 3383 ft 184 kts 287°
2026-04-20 02:18 32.70886 -117.08826 2946 ft 184 kts 283°
2026-04-20 02:19 32.71211 -117.10277 2439 ft 178 kts 284°
2026-04-20 02:19 32.71560 -117.11668 1994 ft 170 kts 285°
2026-04-20 02:19 32.71895 -117.12979 1477 ft 165 kts 286°
2026-04-20 02:19 32.72213 -117.14289 1069 ft 159 kts 284°
2026-04-20 02:20 32.72523 -117.15541 633 ft 157 kts 282°
2026-04-20 02:20 32.72827 -117.16786 319 ft 159 kts 283°
2026-04-20 02:20 32.73132 -117.18053 62 ft 159 kts 284°
2026-04-20 02:20 32.73436 -117.19295 33 ft 151 kts 286°